GFSSW_sfc_temp_057.txt.gz
Temp
60 60 60 60 59 59 59 59 59 60 60 60 60 60 60 60 60 59 61 68 67 69 69 74 74 73 74 72 74 73 64 62 63 63 69 77 76 81 84 81 83 86 86 87 82
59 59 59 59 59 59 59 59 59 59 59 60 60 59 59 60 56 55 66 69 70 71 68 70 70 72 70 69 71 69 63 64 70 72 72 78 76 78 78 80 81 83 89 89 89
59 59 59 59 59 58 58 58 59 59 59 59 59 59 59 60 55 62 70 69 70 72 69 70 70 71 67 70 69 69 63 71 72 74 75 75 78 81 78 76 82 81 83 87 88
58 58 58 58 58 58 58 58 58 59 59 58 58 59 59 57 54 65 69 67 68 72 68 67 66 65 64 63 70 64 68 71 73 74 73 71 78 76 78 80 86 86 85 85 85
57 58 58 57 58 58 58 58 58 58 58 58 59 59 57 54 58 67 67 66 68 67 64 63 63 65 62 65 68 64 69 71 72 73 73 74 72 74 76 82 85 85 84 83 84
57 57 57 57 57 57 57 57 57 57 58 58 59 58 53 52 67 66 65 65 64 64 63 65 63 67 63 64 65 71 70 70 72 71 71 69 72 74 76 81 80 81 82 85 85
57 56 56 57 57 57 57 57 57 57 59 60 59 59 50 58 66 67 64 63 62 63 61 64 68 62 65 61 69 68 62 66 67 70 68 72 66 69 76 80 78 80 82 84 85
56 56 56 56 56 57 57 57 57 58 60 60 60 57 52 64 67 64 65 64 64 64 61 65 65 62 62 66 65 61 62 55 67 67 69 69 61 76 81 78 78 80 82 82 84
56 56 56 56 56 57 56 56 58 60 60 60 56 53 55 67 62 69 66 63 67 66 62 66 63 59 62 55 54 58 53 55 60 69 67 65 63 74 80 77 76 78 81 82 83
56 56 55 56 56 56 55 56 59 60 60 61 59 51 59 60 67 68 72 66 62 62 61 59 59 55 56 54 45 51 51 56 57 65 65 63 64 72 76 75 75 77 78 79 80
56 55 55 55 55 55 55 62 58 56 56 52 53 53 58 64 68 64 69 64 61 58 52 56 51 47 53 55 57 57 55 55 60 66 62 61 64 69 73 73 74 76 77 78 78
55 55 55 54 55 54 56 56 55 55 47 56 55 54 59 62 53 63 67 55 54 49 53 50 45 54 56 56 53 53 51 51 58 61 60 62 62 68 68 69 72 73 74 75 77
54 54 54 54 54 55 55 58 61 60 46 50 56 56 61 61 56 58 62 58 52 49 51 46 51 56 53 52 50 51 49 51 52 57 61 58 56 60 68 70 72 74 74 74 74
54 54 54 54 53 52 56 59 59 58 42 46 53 59 62 62 53 66 64 58 52 48 51 49 56 51 51 49 53 46 56 54 53 51 47 59 46 59 65 66 69 71 72 72 74
54 54 54 54 49 52 57 58 58 56 30 50 53 67 62 55 57 58 64 57 49 49 50 47 49 49 49 50 55 49 57 55 54 51 51 52 47 55 64 62 66 70 70 73 76
54 54 54 50 51 54 57 57 57 41 28 44 52 50 51 54 55 59 58 58 57 49 51 50 57 53 53 56 56 58 54 53 53 51 40 49 48 52 59 63 67 71 74 75 76
53 53 53 54 56 56 56 56 40 33 47 41 42 48 47 46 49 51 49 46 40 35 36 46 47 54 56 50 55 53 48 38 35 36 36 52 47 53 64 66 66 69 71 74 76
52 51 52 55 57 55 56 48 31 38 39 48 45 46 42 47 47 47 46 43 45 38 35 32 31 46 52 51 49 49 48 41 31 35 40 50 43 54 65 69 71 72 71 73 75
50 53 55 58 57 56 53 36 37 39 43 41 44 39 40 45 44 44 44 43 45 46 35 35 33 47 51 53 54 49 43 54 43 44 42 47 52 61 65 65 70 69 71 71 72
48 52 56 58 57 56 47 38 40 46 46 44 35 40 36 40 40 41 40 46 45 49 48 42 34 44 46 52 54 51 56 42 45 34 34 44 46 52 58 63 65 65 66 69 71
49 53 58 56 58 49 37 38 42 48 48 42 39 38 40 38 40 39 40 47 48 47 49 45 40 41 46 40 42 48 46 47 48 47 39 40 47 60 61 62 61 64 67 70 71
46 46 57 57 45 38 39 40 44 45 49 45 45 42 38 39 37 38 38 44 51 49 42 45 39 35 40 50 51 49 46 45 40 40 45 44 45 62 63 62 63 63 67 71 71
42 42 55 55 37 38 41 41 43 44 44 43 41 44 43 38 33 38 42 50 50 47 44 45 39 32 38 44 47 44 46 47 46 45 40 40 45 63 64 64 64 63 67 70 71
44 40 46 47 43 38 35 39 38 47 45 43 41 44 40 39 42 37 39 46 49 48 48 47 40 36 31 37 41 38 43 45 44 39 42 43 47 56 59 59 61 63 65 69 71
41 38 40 36 40 39 38 38 36 38 44 45 41 40 36 33 38 37 41 43 45 45 45 43 36 40 41 41 41 40 40 42 41 44 39 45 47 53 57 57 60 62 66 68 70
39 39 42 38 39 38 39 38 38 40 39 39 37 41 41 35 38 33 38 37 34 40 38 43 35 40 37 42 41 38 42 43 43 44 44 45 45 56 58 60 62 63 65 66 68
41 42 40 39 38 36 38 39 39 40 43 44 42 41 39 43 46 47 46 44 39 36 36 36 37 34 31 40 39 34 42 44 45 48 48 42 50 57 56 58 60 61 62 63 65

GFSSW_sfc_temp_060.txt.gz
Temp
60 60 60 60 59 59 59 59 60 60 60 60 60 60 60 60 61 75 73 71 73 69 70 80 82 82 84 82 84 85 73 70 73 72 74 84 85 93 93 90 92 92 92 93 92
59 59 59 59 59 59 59 59 59 59 60 60 60 60 60 59 68 70 69 70 69 70 78 78 79 81 78 78 80 76 71 73 81 80 77 83 87 89 85 88 89 91 95 96 97
59 59 59 59 59 58 58 58 59 59 60 60 59 59 59 63 67 70 69 69 69 73 79 78 82 81 75 80 77 77 70 77 79 82 82 80 85 91 86 84 90 90 92 95 95
58 59 58 58 58 58 58 58 59 59 59 59 59 59 60 68 62 74 70 69 69 77 78 75 75 74 72 73 79 70 77 79 80 81 78 76 83 84 88 88 95 94 94 94 93
58 58 58 58 58 58 58 58 58 59 59 59 59 59 65 68 68 77 68 74 77 77 74 73 71 73 71 75 77 74 76 79 79 78 78 79 78 82 85 91 95 95 93 92 93
57 57 57 57 58 58 58 58 58 58 58 60 59 59 65 63 77 77 76 75 75 75 72 74 72 76 72 74 74 78 78 78 79 77 76 73 75 80 84 90 90 90 90 93 94
57 57 57 57 57 57 58 57 57 57 59 60 60 66 64 67 77 79 77 75 75 72 71 74 76 71 73 69 77 75 69 74 77 78 74 76 68 73 84 88 87 88 90 91 93
57 56 56 57 57 57 58 57 57 59 61 61 61 66 65 76 80 78 79 76 75 74 72 75 76 72 70 73 71 67 69 63 74 76 77 73 64 79 87 85 84 86 89 90 93
57 56 56 56 56 57 56 56 58 61 61 61 65 65 65 71 74 78 78 71 74 75 73 73 72 67 70 62 60 65 58 63 68 78 75 69 65 78 86 87 83 86 89 90 92
56 56 55 56 56 56 55 56 60 61 65 68 68 60 70 66 74 75 79 74 69 69 67 65 66 62 64 62 51 57 61 64 65 75 75 70 68 77 83 83 83 85 87 89 89
56 56 55 55 55 55 60 70 67 64 68 62 62 61 66 73 76 71 76 71 69 65 58 66 58 56 60 64 64 63 62 63 69 75 73 70 68 73 78 79 81 83 84 85 87
56 55 55 55 55 55 63 66 62 63 56 66 65 64 69 69 60 69 73 62 61 55 61 58 53 61 64 63 61 61 58 59 66 68 70 69 68 74 77 78 82 83 83 84 86
55 55 55 55 55 61 68 65 71 69 57 60 65 64 66 68 62 64 68 65 59 56 57 53 58 64 59 57 54 56 55 56 58 65 69 66 64 68 76 80 82 81 82 83 83
55 55 55 55 56 68 66 69 71 68 53 53 59 64 68 69 59 71 71 64 60 54 56 55 62 58 56 54 57 50 60 60 58 57 52 65 51 65 71 73 76 79 82 83 83
54 55 54 53 65 68 65 70 70 65 40 56 59 72 69 61 62 64 72 65 55 56 56 53 55 55 53 55 60 54 62 59 59 55 56 58 56 63 71 69 74 78 80 82 83
54 54 54 60 68 67 70 68 65 48 35 51 58 57 58 61 61 64 64 66 65 56 58 57 63 60 58 60 61 62 58 58 57 56 47 54 55 57 64 69 73 79 80 81 84
54 53 57 68 65 70 70 64 48 42 54 49 50 55 55 54 56 57 56 55 49 42 46 53 54 60 60 51 59 57 50 39 38 39 42 59 55 58 70 73 76 77 79 80 83
52 51 56 69 72 68 67 56 37 47 48 54 52 53 49 53 53 54 53 51 54 48 42 40 40 51 56 52 51 53 50 41 32 38 45 57 49 59 72 76 78 79 80 80 81
50 67 69 70 69 68 60 44 47 47 50 48 51 47 48 51 51 51 52 50 52 53 39 40 40 54 56 57 56 52 46 55 46 49 49 55 58 66 71 71 74 74 76 76 79
63 66 67 69 68 65 56 43 48 52 52 51 42 47 43 48 48 49 49 52 50 54 55 47 36 51 51 56 57 53 56 42 48 33 36 50 53 55 64 67 72 74 73 76 79
63 60 65 69 67 62 46 48 49 54 53 47 46 44 47 45 48 46 46 53 54 54 56 52 43 45 52 47 43 47 50 48 48 49 40 44 53 68 68 71 70 71 73 75 78
59 55 66 67 53 56 51 49 46 51 54 51 50 47 45 46 44 45 46 50 58 55 48 54 46 41 47 55 55 50 42 40 39 41 49 49 53 70 72 70 69 70 73 76 78
50 55 67 63 45 47 51 49 50 49 49 48 47 49 50 44 38 46 47 54 55 53 48 50 46 38 44 49 54 48 51 53 51 49 38 46 53 69 69 70 71 70 72 74 77
56 50 58 59 55 46 44 46 44 52 51 51 49 51 47 45 46 40 46 51 54 52 50 47 44 40 36 43 48 43 47 52 50 42 46 49 55 64 67 68 70 71 71 74 76
56 49 50 45 50 46 47 45 42 41 50 52 47 47 44 37 44 45 48 48 50 51 49 42 39 45 49 50 50 48 47 49 47 50 44 50 53 61 65 67 68 70 71 73 75
48 48 54 46 47 45 45 47 44 45 46 44 44 46 45 39 42 39 44 44 38 47 44 46 35 44 42 49 49 46 50 51 51 52 51 52 52 64 66 68 67 69 70 72 73
46 48 45 47 45 41 48 45 44 47 49 50 46 44 43 47 53 54 53 51 45 37 36 38 40 38 36 47 45 40 49 52 53 55 55 49 57 64 63 65 66 68 70 70 72

GFSSW_sfc_temp_063.txt.gz
Temp
60 60 60 60 60 60 60 60 60 60 60 60 61 61 60 60 60 77 76 72 74 69 70 84 87 87 86 84 89 89 74 72 76 77 79 89 87 96 101 95 98 100 98 98 100
60 60 60 60 59 59 59 59 59 60 60 60 60 60 60 60 68 78 70 69 69 70 82 83 82 85 80 81 83 80 73 74 83 86 84 86 88 91 93 91 92 95 99 99 101
59 59 59 59 59 59 59 59 59 60 60 60 60 60 60 63 73 76 69 69 69 71 85 84 84 85 80 84 82 79 73 82 84 86 87 84 87 93 90 88 93 92 96 99 99
59 59 59 59 59 59 59 59 59 60 60 60 60 60 60 70 65 78 70 70 71 79 83 82 81 77 76 76 83 76 81 81 84 86 86 80 85 84 89 92 99 100 101 98 96
58 58 58 58 58 58 58 58 59 59 59 59 60 60 65 71 74 81 72 74 83 83 80 79 77 78 73 79 81 78 81 83 85 85 85 84 80 83 86 93 98 100 100 97 97
58 58 58 57 58 58 58 58 58 58 58 59 60 60 68 68 82 83 82 82 82 81 79 79 77 81 77 78 78 82 83 83 85 84 84 79 79 82 85 92 93 95 96 98 97
57 57 57 57 57 58 58 58 57 57 59 60 61 68 71 72 84 85 85 82 82 79 74 81 80 75 77 73 80 79 74 79 81 84 81 82 73 75 85 89 89 91 94 95 97
57 57 57 57 57 57 57 57 57 58 60 62 62 72 70 83 87 85 85 82 84 82 78 80 81 75 73 78 74 70 73 66 77 81 82 79 66 77 85 85 85 89 92 94 96
57 56 56 56 57 57 57 56 59 61 62 62 66 72 70 75 78 83 85 77 80 82 81 79 77 71 73 66 64 67 60 66 71 82 80 78 71 80 85 83 83 87 90 92 94
57 56 56 56 56 56 56 55 62 61 66 75 76 67 75 71 78 80 84 81 76 75 74 73 71 66 69 65 54 61 63 66 66 76 80 76 74 80 83 83 83 85 89 91 93
56 56 56 56 56 56 59 73 67 65 73 69 69 67 71 77 81 77 80 76 74 71 63 70 64 60 65 68 68 66 64 63 70 78 76 74 75 78 83 80 81 86 88 88 90
56 56 56 56 56 56 62 71 68 71 60 73 72 71 74 75 66 74 79 68 66 60 66 63 58 66 68 66 64 63 60 60 68 73 73 72 72 79 83 82 81 83 85 88 90
55 55 55 56 56 60 74 70 78 76 62 66 71 70 72 73 67 69 74 69 64 61 62 58 62 67 64 63 59 60 58 58 59 68 72 69 65 70 79 84 84 84 86 88 89
55 55 55 55 56 78 72 75 79 75 56 59 65 70 73 73 65 75 75 68 64 59 62 61 67 62 60 59 62 53 63 62 60 57 53 68 53 66 73 75 80 83 84 87 89
55 55 54 53 73 74 72 78 78 70 43 62 65 78 73 67 67 68 77 70 59 60 61 57 59 58 57 60 64 57 64 61 60 57 56 58 56 64 73 71 76 80 84 86 88
55 54 54 65 75 75 78 76 71 52 40 57 64 62 63 66 66 69 68 74 71 61 63 61 66 65 63 65 65 65 60 60 60 57 46 55 56 59 67 73 77 83 85 86 88
54 54 57 75 71 79 78 70 53 47 61 56 57 62 61 60 60 61 61 60 57 49 48 57 59 64 64 58 64 59 53 42 39 41 42 58 54 59 70 76 78 79 83 86 88
53 51 60 77 80 77 72 61 42 55 55 61 59 60 56 59 59 59 58 57 62 56 50 43 42 56 63 58 54 55 52 41 30 35 43 57 46 59 72 77 81 82 84 86 84
51 69 73 77 77 75 64 48 53 53 57 54 57 54 55 58 58 58 58 56 58 60 46 45 44 59 62 63 61 53 49 57 45 46 35 41 55 67 74 75 78 79 81 81 82
64 67 73 76 75 69 60 50 55 59 58 57 49 53 49 54 54 55 55 59 55 60 62 53 42 56 58 59 62 56 59 39 48 35 32 44 49 54 65 69 75 77 78 79 81
64 66 69 73 74 64 49 56 57 61 58 53 51 50 52 50 54 52 53 59 60 59 61 57 50 50 57 51 50 53 50 53 49 44 37 33 46 66 69 71 73 77 78 78 80
67 60 72 75 58 61 56 55 47 57 60 56 55 51 51 52 49 50 51 55 60 59 50 56 48 44 50 61 64 57 53 48 35 36 50 47 46 64 69 76 76 76 77 78 80
62 66 73 69 51 54 57 55 57 55 56 54 51 56 56 48 41 50 52 60 60 56 48 51 45 37 43 51 47 42 48 51 49 47 40 35 43 63 71 73 75 74 76 77 79
63 57 67 69 62 52 52 53 52 58 56 57 54 57 52 48 51 47 50 54 57 55 54 51 46 38 34 44 40 37 46 52 52 43 42 47 49 48 53 71 73 74 75 76 78
66 58 57 51 56 54 54 54 51 50 56 56 53 52 48 43 46 47 51 51 56 55 55 45 39 45 49 52 52 52 53 54 51 53 44 50 51 54 50 53 68 73 73 75 77
55 53 58 55 55 53 49 53 51 53 53 51 50 53 48 42 45 44 46 47 44 53 49 47 38 46 43 50 52 50 55 56 55 55 55 56 53 64 66 68 70 71 73 74 76
63 59 51 50 55 52 53 52 51 53 55 57 53 51 50 51 56 56 58 57 52 46 43 39 40 41 37 49 45 41 49 49 51 58 55 50 59 66 66 68 69 71 73 73 75

GFSSW_sfc_temp_069.txt.gz
Temp
60 60 60 60 59 59 59 59 60 60 60 61 61 61 61 61 60 61 57 66 68 70 70 76 77 78 78 72 75 74 54 55 60 64 69 79 75 84 87 83 87 88 87 88 93
59 59 59 59 59 59 59 59 59 59 60 60 61 60 60 60 55 55 69 71 71 71 73 72 71 75 68 70 70 65 53 58 70 73 72 77 79 81 80 80 82 86 88 92 94
59 59 59 59 59 59 59 59 59 59 60 60 60 60 60 59 54 63 72 71 71 71 73 74 73 71 63 68 69 65 60 68 71 75 77 76 78 83 80 76 79 79 85 87 90
58 59 59 59 59 58 58 58 59 59 59 59 59 60 60 56 51 68 73 72 72 72 72 71 69 60 58 59 67 62 70 71 72 76 76 73 78 77 79 79 86 87 86 86 85
58 58 58 58 58 58 58 58 58 58 58 59 59 60 57 55 60 75 73 73 73 73 68 67 63 61 58 64 67 65 68 73 76 77 77 78 74 75 77 84 88 89 87 83 84
58 58 58 58 58 58 58 57 57 57 58 58 59 60 55 52 78 79 74 76 74 71 74 71 64 68 60 61 60 66 69 70 73 73 75 74 75 77 79 85 85 86 83 85 84
58 57 57 57 57 58 58 57 57 57 58 60 61 62 58 58 78 79 78 71 77 78 71 73 72 65 63 58 65 64 57 64 69 71 70 72 68 71 80 83 81 83 85 84 83
58 57 57 56 57 57 58 57 57 58 59 62 63 59 54 77 75 76 76 77 80 78 76 76 74 63 59 62 61 56 55 47 58 68 72 69 58 71 78 79 78 80 83 84 84
57 56 57 56 57 57 57 56 57 59 61 63 58 55 57 74 75 79 75 75 77 78 76 82 69 60 61 52 46 50 43 49 56 66 67 65 62 72 77 76 75 78 80 82 83
57 56 56 56 56 56 56 56 58 60 64 68 68 57 66 69 75 78 79 78 73 71 69 67 59 52 50 46 36 45 47 54 54 60 63 59 62 70 73 76 76 74 78 79 81
57 56 56 56 56 55 54 58 54 52 56 58 63 64 72 77 79 76 79 74 72 65 54 61 50 45 52 56 58 56 54 52 58 64 59 57 59 64 68 69 70 76 76 75 78
56 56 56 56 55 55 50 52 64 63 52 68 69 71 76 75 66 74 79 65 62 52 58 53 46 58 63 61 58 55 51 50 57 62 60 57 56 62 66 66 68 71 74 76 76
55 55 56 55 54 53 57 66 72 68 50 64 71 69 70 72 65 67 73 66 59 54 54 48 55 65 61 57 55 53 50 50 51 58 60 55 51 56 64 67 70 72 75 74 76
55 55 55 54 52 61 66 72 71 68 41 57 63 68 71 69 62 76 76 66 58 52 55 52 60 60 56 54 56 47 58 57 55 49 40 54 38 50 58 60 65 69 71 73 71
55 55 55 54 52 57 68 70 67 60 31 61 64 74 70 63 66 68 75 67 55 56 54 50 54 53 52 54 57 49 56 54 53 48 41 46 39 48 54 55 60 65 69 73 74
55 55 54 59 54 63 71 70 62 41 34 56 65 62 60 65 66 69 67 69 66 57 57 55 63 56 53 57 57 58 51 50 49 42 34 44 42 43 49 54 60 65 69 72 75
54 54 52 62 57 70 68 60 40 34 62 54 56 60 58 58 61 63 59 54 48 43 42 52 54 56 58 49 53 50 39 27 27 28 31 47 43 46 52 58 60 60 65 69 74
53 52 58 65 68 67 59 47 34 51 52 60 58 58 53 59 58 59 55 50 58 52 41 36 34 52 58 49 45 45 42 31 24 26 33 46 35 44 58 61 63 65 66 67 72
52 58 59 64 68 62 50 34 40 51 57 54 55 52 53 59 57 55 51 52 56 53 40 38 40 56 58 58 56 45 38 47 36 40 29 36 44 52 56 55 53 52 55 55 59
49 55 60 68 66 56 44 44 52 60 59 56 46 52 44 49 49 48 49 56 54 56 52 45 36 51 55 56 55 49 52 34 32 23 24 34 38 40 45 45 48 48 49 54 56
50 51 63 68 63 50 38 46 55 62 61 53 49 47 48 47 48 46 48 55 57 55 53 46 38 41 48 44 43 38 38 36 35 32 26 25 33 46 44 45 44 47 52 52 53
51 47 65 66 46 49 47 54 56 60 61 58 54 51 48 49 46 46 47 52 59 55 45 46 38 32 40 49 49 46 40 38 30 29 32 29 34 49 48 48 47 47 52 53 55
47 53 64 61 40 41 51 55 59 58 55 54 51 54 52 45 40 47 48 58 57 52 46 44 34 28 33 39 44 41 43 43 38 35 30 29 34 56 50 49 49 47 49 51 53
49 45 53 54 52 46 46 49 51 61 59 58 54 55 49 45 47 43 47 55 58 55 56 49 37 32 27 34 40 38 43 47 38 31 34 37 41 45 44 47 47 46 49 49 51
51 47 50 40 43 47 48 50 50 51 57 55 49 51 48 40 43 42 47 49 54 55 49 42 33 38 41 44 45 44 45 46 43 41 34 41 37 43 43 47 49 48 49 51 54
45 45 48 44 49 48 49 48 50 52 50 48 45 50 47 41 42 41 44 42 41 48 42 43 34 38 35 43 45 42 47 47 47 48 45 44 42 49 51 54 52 52 53 57 62
52 52 46 44 45 43 44 47 50 51 54 55 50 47 44 47 52 50 49 48 47 43 41 40 37 32 29 42 40 34 41 43 44 47 44 36 41 48 47 50 52 54 58 59 61

GFSSW_sfc_temp_075.txt.gz
Temp
59 59 59 59 59 59 59 59 59 59 60 60 60 60 60 60 60 52 49 62 61 68 70 69 71 71 69 64 68 67 52 49 56 59 61 68 63 73 78 74 77 79 78 81 81
59 59 59 59 59 59 59 59 59 59 59 60 60 60 60 60 54 49 61 69 69 71 65 64 65 67 60 61 62 58 47 54 63 65 64 68 67 71 73 73 74 76 80 83 83
59 59 59 59 58 58 58 58 58 59 59 59 59 59 59 59 49 59 70 69 71 70 65 64 64 62 54 58 60 58 51 61 66 68 69 68 70 75 71 69 73 73 76 80 79
58 58 58 58 58 58 57 58 58 59 59 59 59 59 59 54 46 64 73 71 71 66 64 62 58 52 52 53 61 55 61 64 66 70 67 66 71 70 71 72 79 80 79 79 78
58 58 58 58 58 57 57 57 57 58 58 58 59 60 53 49 53 69 73 72 68 66 63 59 53 51 48 52 56 55 60 64 66 66 67 70 68 69 71 78 81 82 80 77 77
57 57 57 58 57 57 57 57 57 57 57 58 59 60 50 48 69 71 70 67 67 62 63 60 56 59 51 50 50 56 57 60 62 63 64 65 67 69 73 76 78 78 78 76 76
57 57 57 57 57 57 57 57 56 57 57 58 60 59 50 54 69 68 68 62 67 68 64 66 64 59 55 52 54 55 51 56 60 62 63 65 59 62 73 74 73 75 78 79 77
57 57 57 56 57 57 58 57 56 57 58 59 61 55 48 67 65 64 64 67 71 69 69 67 65 58 52 53 53 48 45 42 53 60 64 62 53 65 69 68 66 70 73 74 76
57 56 56 57 57 57 57 56 57 58 59 60 51 49 52 70 68 71 70 68 69 69 68 76 63 55 55 45 40 42 36 40 49 56 56 57 50 61 65 65 64 65 66 70 72
57 56 56 56 56 56 55 55 56 57 59 62 62 50 59 63 70 71 71 71 66 64 63 60 51 47 43 40 33 39 39 44 44 53 54 51 53 59 62 62 63 63 64 65 68
57 56 55 55 56 55 51 52 52 51 53 53 56 57 63 69 73 69 72 67 65 59 47 51 44 40 46 47 49 46 44 43 48 55 51 49 51 55 58 58 58 61 61 61 63
56 56 56 55 55 55 48 53 55 57 49 60 60 61 66 67 60 67 73 59 55 47 50 46 40 51 54 52 49 47 43 41 48 53 51 48 50 55 55 57 58 59 60 61 62
55 55 55 55 54 51 51 57 62 56 45 55 61 60 62 64 59 61 67 60 53 47 45 41 49 56 54 50 48 43 41 42 42 49 51 47 47 49 54 56 59 58 61 61 61
54 54 55 54 53 50 55 62 59 58 39 51 56 62 64 61 57 69 69 61 52 47 48 46 53 52 48 48 48 40 49 48 46 41 33 47 33 47 49 51 54 58 57 56 57
54 55 54 54 49 52 60 56 56 56 27 55 58 67 61 57 59 63 68 60 51 51 48 46 48 48 45 48 50 45 50 46 45 39 34 39 32 39 50 49 50 52 54 54 54
54 54 54 50 46 53 56 56 56 39 30 51 58 55 54 57 59 61 60 61 58 49 48 49 53 50 49 52 51 52 44 41 38 34 25 36 36 36 40 44 48 51 53 55 55
53 54 51 55 53 54 54 52 37 30 53 48 49 52 49 50 55 56 53 48 42 37 37 45 46 50 54 44 48 44 34 24 23 24 26 38 34 38 47 51 51 50 52 54 55
52 52 52 56 53 54 51 44 32 46 46 54 52 51 46 50 51 51 48 42 49 44 35 33 31 45 51 45 40 39 36 24 19 23 28 39 28 37 49 51 51 53 52 53 53
50 48 50 55 57 53 47 31 34 43 51 49 49 43 43 49 47 46 44 44 47 45 35 33 35 49 51 49 46 37 32 38 29 29 24 30 38 45 50 49 51 50 52 50 51
44 46 51 58 55 50 41 39 44 54 54 51 39 45 37 42 42 41 41 49 47 50 45 40 32 45 48 49 46 40 43 28 25 22 21 28 30 34 44 46 47 46 46 48 50
46 48 56 56 54 45 33 38 48 57 56 49 44 42 42 40 40 39 43 48 51 48 46 39 35 37 42 39 37 35 32 31 29 25 18 22 29 40 42 44 43 44 46 46 49
42 43 56 56 42 35 37 45 51 54 55 52 49 46 43 43 40 41 41 47 53 50 41 41 33 29 35 44 45 40 36 33 23 24 27 25 30 48 44 45 44 44 48 48 51
39 41 53 53 35 33 40 47 51 50 50 49 47 49 46 40 35 42 44 51 52 48 42 41 31 27 30 35 39 36 38 37 33 30 30 25 30 46 45 45 46 45 46 48 50
40 38 42 42 40 36 37 41 44 53 51 50 47 47 42 39 41 40 41 50 51 48 55 47 32 32 25 32 33 33 38 40 39 29 29 31 35 42 45 45 46 45 46 47 49
39 36 38 33 35 35 36 40 42 42 48 47 43 44 39 33 35 37 41 43 47 50 43 40 30 33 36 40 40 38 38 39 36 37 31 36 36 42 45 42 44 47 49 51 53
37 35 37 35 38 37 38 37 40 42 42 41 37 42 40 34 37 34 38 37 37 43 38 36 30 33 33 39 39 37 40 40 41 42 41 40 39 46 44 44 44 47 49 50 52
40 40 37 36 35 32 33 37 39 41 44 46 42 38 37 40 42 42 42 43 43 38 35 33 31 30 29 39 37 30 38 40 41 42 40 35 43 44 44 45 45 47 50 51 53